Starlink 11589

operational
NORAD ID: 63311 Int'l Des: 2025-057 Owner: SPXS Country: US Constellation: starlink
LEOCIRCULAR

关于 Starlink 11589

正在加载描述...

实时位置

正在加载3D地球...

即将过境

高度历史

Altitude vs Time

uPlot chart will show altitude changes over time

两行轨道根数

1 63311U 25057E 25354.15172847 .00197489 00000-0 14991-2 0 9991
2 63311 42.9999 24.3822 0002245 256.3465 103.7153 15.70953249 44668
Epoch: Dec 20, 2025 • Age: 21 hours

当前状态

高度 362.7 km
速度 7.69 km/s
星下点 -31.87°S, 144.06°E
发射日期 Mar 18, 2025
运行时间 0.7 years
类型 internet

技术详情

分类 Payload
质量 960.00 kg
干质量 910.00 kg
总质量 960.00 kg
长度 0.30 m
直径 4.10 m
跨度 29.00 m
形状 Box + pan
制造商 SPXS
平台类型 Starlink V2MD
阶段状态 In Orbit
所有者/国家 SPXS/US

大型星座

Loading constellations...